Regional Weather Roundup
Issued by NWS Charleston, SC

Home | Current Version | Previous Version | Text Only | Print | Product List | Glossary On
Versions: 1 2 3 4 5 6 7 8 9 10 11 12 13 14 15 16 17 18 19 20 21 22 23 24 25 26 27 28 29 30 31 32 33 34 35 36 37 38 39 40 41 42 43 44 45 46 47 48 49 50
000
ASUS42 KCHS 302112
RWRCHS

REGIONAL WEATHER ROUNDUP
NATIONAL WEATHER SERVICE CHARLESTON SC
500 PM EDT SUN AUG 30 2015

NOTE: "FAIR" INDICATES FEW OR NO CLOUDS BELOW 12,000 FEET WITH NO
SIGNIFICANT WEATHER AND/OR OBSTRUCTIONS TO VISIBILITY.

NOT ALL STATIONS ARE QUALITY CONTROLLED BY THE NATIONAL
WEATHER SERVICE. USE DATA WITH CAUTION...ESPECIALLY
DEWPOINT OBSERVATIONS.

SCZ027-030-031-034>040-042>050-302200-
...SOUTHEAST SOUTH CAROLINA...

CITY           SKY/WX    TMP DP  RH WIND       PRES   REMARKS
N CHARLESTON   TSTM      74  72  93 SE9       30.10F
WATERFRONT PRK   N/A     75  74  97 E7        30.09F
MOUNT PLEASANT RAIN      73  73 100 E5        30.12S
JOHNS ISLAND   LGT RAIN  75  73  94 E9        30.10F
PINOPOLIS      NOT AVBL
MONCKS CORNER  RAIN      75  72  88 CALM      30.11F
SUMMERVILLE    LGT RAIN  73  73 100 E5        30.10F
BEAUFORT MCAS  RAIN      75  74  96 E13G20    30.05F
BEAUFORT ARPT  LGT RAIN  73  73 100 E8G16     30.05F
HILTON HEAD IS NOT AVBL
WALTERBORO     LGT RAIN  77  73  88 E8        30.06F
ALLENDALE      MOCLDY    77  73  88 SE8G16    30.06F

...SOUTHERN MIDLANDS AND PEE DEE...

CITY           SKY/WX    TMP DP  RH WIND       PRES   REMARKS
GEORGETOWN     NOT AVBL
KINGSTREE      NOT AVBL
ORANGEBURG     CLOUDY    76  71  85 SE8       30.09F
BARNWELL       DRIZZLE   77  75  94 SE8       30.08S
AIKEN          FAIR      75  68  78 NE13      30.11F
MANNING        CLOUDY    73  72  94 E3        30.12S
COLUMBIA       CLOUDY    76  70  82 NE6       30.09F
SUMTER         LGT RAIN  73  71  93 E8        30.10S
FLORENCE       HVY RAIN  72  70  93 SE8       30.16R FOG
MYRTLE BEACH   LGT RAIN  79  72  78 NE7       30.15S FOG
N MYRTLE BEACH LGT RAIN  78  74  87 E5        30.13S

$$

GAZ063-065-086>088-099>101-113>116-118-119-134>141-150-302200-
...SOUTHEAST GEORGIA...

CITY           SKY/WX    TMP DP  RH WIND       PRES   REMARKS
SAVANNAH ARPT  CLOUDY    77  73  87 E16       30.05F
HUNTER AAF     CLOUDY    77  77 100 E15       30.02F
FORT STEWART   PTSUNNY   80  73  79 E13G22    30.02F
STATESBORO     CLOUDY    76  76 100 SE7       30.06R
SYLVANIA       CLOUDY    77  76  96 SE6       30.08R
CLAXTON        NOT AVBL

...CSRA...CENTRAL AND FAR SOUTHEAST GEORGIA...

CITY           SKY/WX    TMP DP  RH WIND       PRES   REMARKS
THOMSON          N/A     73  73 100 NW8G26    30.12R
AUGUSTA-BUSH   RAIN      75  73  93 SE6       30.04F FOG
AUGUSTA-DANIEL HVY RAIN  83  72  69 NE8       30.06S
SWAINSBORO     CLOUDY   N/A N/A N/A SE6       30.06F
VIDALIA        CLOUDY    77  73  88 NE3       30.07R
EASTMAN        FAIR      85  72  63 N6        30.05S HX  91
HAZLEHURST     MOCLDY    80  77  90 CALM      30.02S
ALMA           PTSUNNY   83  75  77 SE8       30.01F HX  90
WAYCROSS       MOSUNNY   87  78  74 E13       30.00F HX  99
JESUP          MOCLDY    86  77  74 E12G18    30.02F HX  97
BAXLEY         PTSUNNY   82  75  78 E7        30.01F
BRUNSWICK      CLOUDY    79  75  89 E8        30.03F
SAINT SIMONS   CLOUDY    80  74  81 E14       30.03R

$$

SCZ027-028-034-036>038-045-046-048>050-GAZ119-141-302200-
...LAKE AND SUPPLEMENTAL COASTAL OBSERVATIONS...

STATION/POSITION TIME  TEMP    WIND        PRES    WAVE   SWELL
                       AIR SEA DIR/SP/G            HT/PER HT/PER/DIR
                 (UTC) (F)     (DEG/KT/KT) (MB)    (FT/S) (FT/S/D)
UPR LAKE MARION  NOT AVBL
WINYAH BAY       1945   77     190/  5     1019.0
LAKE MURRAY      2000   73      40/  2/  4 1019.3F
ACE BASIN NERRS  NOT AVBL
FORT PULASKI     NOT AVBL
SAPELO ISLAND    2000   77     110/  3     1017.0F

$$

ANZ835-935-AMZ111-154-330-350-352-354-370-450-454-472-302200-
...C-MAN AND BUOY OBSERVATIONS...

STATION/POSITION TIME  TEMP    WIND        PRES    WAVE   SWELL
                       AIR SEA DIR/SP/G            HT/PER HT/PER/DIR
                 (UTC) (F)     (DEG/KT/KT) (MB)    (FT/S) (FT/S/D)
BUOY 41004       2050   75 84   30/ 12/ 14 1019.5F   4/10   3/10
BUOY 41008       2050   79 84  100/ 19/ 23 1017.2F   5/10   3/120/10
FOLLY BEACH CMAN 2000   76      80/  6/  7 1020.2F
CAPERS NEARSHORE NOT AVBL
FRIPP NEARSHORE  2000   76      70/ 17/ 21 1018.8F


STATION/POSITION TIME  TEMP    WIND        PRES    WAVE   SWELL
                       AIR SEA DIR/SP/G            HT/PER HT/PER/DIR
                 (UTC) (F)     (DEG/KT/KT) (MB)    (FT/S) (FT/S/D)
5E ST. MARYS GA  2021      85                N/A     4/11   2/100/11
FRYING PAN BUOY  2050   81 82   90/  8/ 10 1020.4R   4/11   3/180/11
BUOY 41025       2050   79 81   20/  4/  6 1019.8R   3/11   3/ 80/11
CAPE LOOKOUT NC  2000   80     120/  3/  3 1019.7F
BUOY 41002       2050   83 85   60/  6/  8 1020.2F   4/10   5/140/10
BUOY 41010       2020   83 86  160/ 16/ 19 1017.2F
ST AUGUSTINE FL  2100   77 85  180/  8/  9 1017.1F


$$



USA.gov is the U.S. government's official web portal to all federal, state and local government web resources and services.